Погода в Шаламово

Россия / Курганская область     55°36′02″N   63°34′09″E
темп.,
°C
ветер,
м/с
пор.,
м/с
влажн.,
%
обл.,
%
осадки,
мм/ч
давл.,
гПа
погр.,
м
1 марта, пн
пн123:00−17св379798 0.3 1011145
02:00−17ссв489697 0.1 1012213
05:00−20ссв369896 0.1 1013104
08:00−20ссв359882 0.1 1015112
11:00−18ссв349585 0.1 1016254
14:00−15с3489100 0.0 1017388
17:00−15ссз2393100 0.1 1017265
20:00−19сз119889 0.0 101720
2 марта, вт
вт223:00−18юз129786 0.1 101820
02:00−20юз22990 0.0 101620
05:00−21юз239919 0.0 101620
08:00−21юз349934 0.0 101445
11:00−16ююз359454 0.0 1013241
14:00−12ююз479289 0.0 1011363
17:00−12ю5109294 0.0 1009369
20:00−15ю5129599 0.0 1006272
3 марта, ср
ср323:00−14ююз6119399 0.0 1005300
02:00−11ююз61293100 0.1 1004397
05:00−10ююз61188100 0.2 1003415
08:00−11ююз51291100 0.0 1002392
11:00−5юз71291100 0.1 1001646
14:00−2юз71188100 0.1 1000740
17:00−3ююз5118899 0.1 1000477
20:00−6ююз5109129 0.0 1000205
4 марта, чт
чт423:00−6ююз489363 0.0 1000185
02:00−7ююз349678 0.0 99952
05:00−9юз239667 0.0 99921
08:00−10зюз239380 0.0 99821
11:00−7зюз469240 0.0 998254
14:00−4з589072 0.0 998579
17:00−4з6108787 0.1 1000732
20:00−8з5138678 0.0 1002308
5 марта, пт
пт523:00−12зюз5108939 0.0 1005167
02:00−13юз410870 0.0 1004151
05:00−12ююз7158815 0.0 1003378
08:00−6юз9179195 1.1 1001713
11:00−2юз11188197 1.1 998935
14:00+1юз101680100 0.0 9981278
17:00+1зюз91681100 0.1 10011015
20:00−3зюз7187164 1.1 1003662